Bedford, MA

5:53 AM EDT on July 22, 2017 (GMT -0400)
Hanscom

Weather History for KBED - February, 2014

Change the Weather History Date:

Tuesday, February 25, 2014

  Actual Average Record
Temperature  
Mean Temperature 22 °F -  
Max Temperature 26 °F 38 °F 70 °F (2017)
Min Temperature 17 °F 22 °F -1 °F (1962)
Degree Days  
Heating Degree Days 44    
Moisture  
Dew Point 5 °F    
Average Humidity 50    
Maximum Humidity 62    
Minimum Humidity 39    
Precipitation  
Precipitation 0.00 in - - ()
Sea Level Pressure  
Sea Level Pressure 29.98 in    
Wind  
Wind Speed 7 mph (West)    
Max Wind Speed 18 mph    
Max Gust Speed 25 mph    
Visibility 10 miles    
Events      
Averages and records for this station are not official NWS values.
T = Trace of Precipitation, MM = Missing Value Source: NWS Daily Summary

Daily Weather History Graph

Daily Weather History Graph

Search for Another Location

Airport or City:

Trip Planner

Search our weather history database for the weather conditions in past years. The results will help you decide how hot, cold, wet, or windy it might be!

Date:

Astronomy

Feb. 25, 2014 Rise Set
Actual Time 6:27 AM EST 5:29 PM EST
Civil Twilight 5:58 AM EST 5:58 PM EST
Nautical Twilight 5:26 AM EST 6:31 PM EST
Astronomical Twilight 4:53 AM EST 7:03 PM EST
Moon 3:22 AM EST (2/25) 1:28 PM EST (2/25)
Length of Visible Light 11h 59m
Length of Day
11h 02m
Waning Crescent, 18% of the Moon is Illuminated
Feb 25
Waning Crescent
Mar 1
New
Mar 8
First Quarter
Mar 16
Full
Mar 23
Last Quarter

Hourly Weather History & Observations

Time (EST) Temp. Windchill Dew Point Humidity Pressure Visibility Wind Dir Wind Speed Gust Speed Precip Events Conditions
12:56 AM 19.9 °F 14.9 °F 9.0 °F 62% 29.99 in 10.0 mi WNW 3.5 mph - N/A   Clear
1:56 AM 19.9 °F 14.9 °F 5.0 °F 52% 29.99 in 10.0 mi West 3.5 mph - N/A   Overcast
2:56 AM 19.9 °F 13.4 °F 6.1 °F 55% 29.99 in 10.0 mi WSW 4.6 mph - N/A   Mostly Cloudy
3:56 AM 19.9 °F 14.9 °F 8.1 °F 60% 30.00 in 10.0 mi WSW 3.5 mph - N/A   Overcast
4:56 AM 19.9 °F 11.1 °F 6.1 °F 55% 30.00 in 10.0 mi West 6.9 mph - N/A   Overcast
5:56 AM 19.0 °F 13.9 °F 6.1 °F 57% 30.01 in 10.0 mi West 3.5 mph - N/A   Clear
6:56 AM 17.1 °F 10.0 °F 6.1 °F 62% 30.00 in 10.0 mi WSW 4.6 mph - N/A   Clear
7:56 AM 19.0 °F 8.2 °F 3.9 °F 52% 30.02 in 10.0 mi WSW 9.2 mph - N/A   Clear
8:56 AM 21.0 °F 8.1 °F 3.0 °F 46% 30.01 in 10.0 mi West 13.8 mph 25.3 mph N/A   Clear
9:56 AM 21.0 °F 9.3 °F 3.9 °F 48% 30.00 in 10.0 mi West 11.5 mph 18.4 mph N/A   Mostly Cloudy
10:56 AM 23.0 °F 9.6 °F 3.9 °F 44% 29.99 in 10.0 mi West 16.1 mph 23.0 mph N/A   Mostly Cloudy
11:56 AM 25.0 °F 13.6 °F 5.0 °F 43% 29.97 in 10.0 mi West 12.7 mph 20.7 mph N/A   Mostly Cloudy
12:56 PM 25.0 °F 11.3 °F 3.0 °F 39% 29.94 in 10.0 mi West 18.4 mph 24.2 mph N/A   Mostly Cloudy
1:56 PM 25.0 °F 12.2 °F 3.0 °F 39% 29.93 in 10.0 mi WSW 16.1 mph 21.9 mph N/A   Overcast
2:56 PM 26.1 °F 14.0 °F 3.9 °F 39% 29.92 in 10.0 mi West 15.0 mph - N/A   Mostly Cloudy
3:56 PM 26.1 °F 12.7 °F 5.0 °F 41% 29.92 in 10.0 mi West 18.4 mph 24.2 mph N/A   Mostly Cloudy
4:56 PM 24.1 °F 12.5 °F 3.9 °F 42% 29.92 in 10.0 mi WNW 12.7 mph 24.2 mph N/A   Scattered Clouds
5:56 PM 21.9 °F 9.8 °F 3.9 °F 46% 29.95 in 10.0 mi WNW 12.7 mph - N/A   Clear
6:56 PM 21.0 °F 11.4 °F 3.9 °F 48% 29.96 in 10.0 mi WNW 8.1 mph - N/A   Clear
7:56 PM 21.0 °F 13.4 °F 3.9 °F 48% 29.97 in 10.0 mi West 5.8 mph - N/A   Clear
8:56 PM 19.0 °F 12.3 °F 5.0 °F 54% 29.98 in 10.0 mi WSW 4.6 mph - N/A   Clear
9:56 PM 18.0 °F 9.8 °F 3.9 °F 54% 29.99 in 10.0 mi WSW 5.8 mph - N/A   Clear
10:56 PM 17.1 °F 10.0 °F 3.9 °F 56% 29.99 in 10.0 mi WSW 4.6 mph - N/A   Clear
11:56 PM 17.1 °F - 3.9 °F 56% 29.98 in 10.0 mi Calm Calm - N/A   Clear